Regional Weather Roundup
Issued by NWS State College, PA

Home | Current Version | Previous Version | Text Only | Print | Product List | Glossary On
Versions: 1 2 3 4 5 6 7 8 9 10 11 12 13 14 15 16 17 18 19 20 21 22 23 24 25 26 27 28 29 30 31 32 33 34 35 36 37 38 39 40 41 42 43 44 45 46 47 48 49 50
000
ASUS41 KCTP 301210
RWRCTP

REGIONAL WEATHER ROUNDUP
NATIONAL WEATHER SERVICE STATE COLLEGE PA
800 AM EDT THU JUL 30 2015

Note: "fair" indicates few or no clouds below 12,000 feet with no
significant weather and/or obstructions to visibility.

* = STATION THAT DOES NOT REPORT PRECIPITATION /E.G. RAIN...SNOW...ETC/
    THUNDER OR FOG.

PAZ002>004-007>009-013>016-020>023-029>032-301300-
WESTERN PENNSYLVANIA

CITY           SKY/WX    TMP DP  RH WIND       PRES   REMARKS
ERIE           PTSUNNY   70  64  81 S5        29.92S
MEADVILLE      LGT RAIN  70  61  73 W7        29.97S
FRANKLIN*      MOSUNNY   70  63  78 W6        29.98F
NEW CASTLE     FAIR      73  66  78 CALM      29.98S
BEAVER COUNTY  NOT AVBL
BUTLER*        MOSUNNY   73  63  68 NW3       29.99F
PITTSBURGH INT MOSUNNY   75  60  59 NW9       29.97S
PITTSBURGH     PTSUNNY   73  58  59 NW7G17    29.96S
INDIANA*       CLOUDY    73  70  88 NW5       30.00R
LATROBE        CLOUDY    73  73 100 NW16      29.97R FOG
WASHINGTON CO* NOT AVBL
$$

PAZ004>006-010>012-017>019-024>028-033>037-041-042-045-046-049>053-301300-
CENTRAL PENNSYLVANIA

CITY           SKY/WX    TMP DP  RH WIND       PRES   REMARKS
BRADFORD       PTSUNNY   68  65  90 W8        29.97R
DUBOIS         CLOUDY    71  66  84 W7        29.96S
CLEARFIELD     CLOUDY    71  69  93 SW5       29.94F FOG
JOHNSTOWN      FOG       71  69  93 SW5       29.99S VSB 1
ALTOONA        CLOUDY    75  70  84 SW5       29.96S HAZE
STATE COLLEGE  HVY RAIN  72  70  94 CALM      29.94R VSB 1
WILLIAMSPORT   PTSUNNY   75  70  84 W3        29.87F
SELINSGROVE    CLOUDY    78  74  87 CALM      29.89F
FT INDIANTOWN  CLOUDY    76  72  88 S3        29.91S
CAPITAL CITY   CLOUDY    78  72  81 SW3       29.90S
HARRISBURG     CLOUDY    78  71  79 CALM      29.90S
YORK           PTSUNNY   78  72  81 VRB3      29.91F
$$

PAZ038>040-043-044-047-048-054-055-060>062-067>071-301300-
EASTERN PENNSYLVANIA

CITY           SKY/WX    TMP DP  RH WIND       PRES   REMARKS
SCRANTON       CLOUDY    78  71  79 SW7       29.90F HAZE
MOUNT POCONO     N/A    N/A N/A N/A MISG      29.97S
ALLENTOWN      CLOUDY    79  73  82 SW7       29.91S
QUAKERTOWN*    CLOUDY    77  73  88 SW3       29.93F
READING        CLOUDY    79  73  82 S5        29.90F
LANCASTER      MOSUNNY   78  73  84 SW5       29.91F
COATESVILLE    CLOUDY    77  77 100 SW3       29.94F
POTTSTOWN      CLOUDY    77  74  90 S5        29.93F
BLUE BELL      CLOUDY    77  73  88 CALM      29.92S
DOYLESTOWN     CLOUDY    75  73  93 S5        29.92F
WILLOW GROVE   NOT AVBL
NORTH PHILA    PTSUNNY   80  71  74 SW7       29.93S
PHILADELPHIA   PTSUNNY   80  73  79 S12       29.92F
$$


USA.gov is the U.S. government's official web portal to all federal, state and local government web resources and services.